FW9262 Weather Reports


time (UTC)temp
F
wind
direction
speed
knots
gust
knots
rain 1hr
in
rain 24hr
in
rain mn
in
humidity
%
barometer
mb
20260903035616 70 353 0.9 1.7 0.00 0.00 0.00 81 1017.0
20260903035112 70 350 0.9 1.7 0.00 0.00 0.00 81 1017.0
20260903034607 70 49 0.0 1.7 0.00 0.00 0.00 81 1016.6
20260903034102 70 11 0.9 0.9 0.00 0.00 0.00 81 1016.6
20260903033557 70 40 0.9 2.6 0.00 0.00 0.00 81 1016.6
20260903033052 70 39 1.7 1.7 0.00 0.00 0.00 81 1016.6
20260903032547 70 3 0.0 0.9 0.00 0.00 0.00 81 1016.3
20260903032043 70 44 0.0 1.7 0.00 0.00 0.00 81 1016.6
20260903031542 70 35 0.9 0.9 0.00 0.00 0.00 80 1016.3
20260903031037 70 36 0.0 1.7 0.00 0.00 0.00 80 1016.3
20260903030533 71 354 0.0 0.0 0.00 0.00 0.00 79 1016.3
20260903030029 71 335 0.0 0.0 0.00 0.00 0.00 79 1016.3
20260903025523 71 342 0.0 1.7 0.00 0.00 0.00 78 1016.6
20260903025020 71 264 0.0 0.9 0.00 0.00 0.00 76 1016.3
20260903024513 71 256 1.7 1.7 0.00 0.00 0.00 75 1016.6
20260903024007 71 317 0.0 0.9 0.00 0.00 0.00 74 1016.6
20260903023503 71 322 0.0 1.7 0.00 0.00 0.00 73 1016.6
20260903022958 71 349 0.9 1.7 0.00 0.00 0.00 72 1016.3
20260903022457 71 326 0.9 2.6 0.00 0.00 0.00 72 1016.6
20260903021955 71 323 1.7 1.7 0.00 0.00 0.00 71 1016.6
20260903021451 71 178 0.9 2.6 0.00 0.00 0.00 70 1016.3
20260903020946 71 290 0.9 1.7 0.00 0.00 0.00 70 1016.6
20260903020441 72 318 1.7 3.5 0.00 0.00 0.00 70 1016.6
20260903015936 72 235 0.0 0.9 0.00 0.00 0.00 69 1016.6
20260903015432 72 261 2.6 3.5 0.00 0.00 0.00 68 1016.3
20260903014927 72 291 0.9 2.6 0.00 0.00 0.00 66 1016.6
20260903014426 72 300 2.6 3.5 0.00 0.00 0.00 65 1016.3
20260903013922 72 323 2.6 7.0 0.00 0.00 0.00 65 1016.6
20260903013421 72 290 0.9 3.5 0.00 0.00 0.00 67 1016.6
20260903012921 72 293 0.9 2.6 0.00 0.00 0.00 68 1017.0
20260903012420 72 271 1.7 3.5 0.00 0.00 0.00 69 1016.6
20260903011919 73 6 2.6 3.5 0.00 0.00 0.00 69 1017.0
20260903011414 73 298 0.9 1.7 0.00 0.00 0.00 68 1016.6
20260903010909 73 326 0.9 1.7 0.00 0.00 0.00 68 1016.6
20260903010405 72 333 0.9 2.6 0.00 0.00 0.00 69 1017.0
20260903005902 73 235 1.7 3.5 0.00 0.00 0.00 70 1016.6
20260903005358 73 300 0.0 1.7 0.00 0.00 0.00 70 1017.0
20260903004854 73 253 1.7 5.2 0.00 0.00 0.00 71 1016.6
20260903004349 73 288 2.6 6.1 0.00 0.00 0.00 72 1016.6
20260903003845 74 315 1.7 5.2 0.00 0.00 0.00 71 1017.0
20260903003345 73 185 1.7 6.1 0.00 0.00 0.00 70 1017.0
20260903002844 73 187 2.6 3.5 0.00 0.00 0.00 69 1016.6
20260903002339 74 258 3.5 5.2 0.00 0.00 0.00 67 1017.0
20260903001834 74 337 0.0 3.5 0.00 0.00 0.00 69 1017.0
20260903001330 76 227 3.5 5.2 0.00 0.00 0.00 68 1017.0
20260903000829 76 206 1.7 5.2 0.00 0.00 0.00 67 1017.0
20260903000325 76 319 1.7 5.2 0.00 0.00 0.00 67 1017.0
20260902235822 76 263 2.6 5.2 0.00 0.00 0.00 66 1017.0
20260902235318 76 337 4.3 7.0 0.00 0.00 0.00 66 1017.0
20260902234812 75 240 3.5 7.0 0.00 0.00 0.00 66 1017.0
20260902234311 75 197 3.5 7.0 0.00 0.00 0.00 67 1017.0
20260902233811 76 239 5.2 6.1 0.00 0.00 0.00 64 1017.0
20260902233311 75 233 3.5 7.0 0.00 0.00 0.00 68 1017.0
20260902232809 77 243 2.6 3.5 0.00 0.00 0.00 67 1017.0
20260902232309 78 311 0.9 5.2 0.00 0.00 0.00 64 1017.0
20260902231809 77 305 1.7 6.1 0.00 0.00 0.00 66 1017.0
20260902231304 77 262 3.5 5.2 0.00 0.00 0.00 65 1017.0
20260902230759 76 313 0.9 7.0 0.00 0.00 0.00 68 1017.3
20260902230258 76 271 3.5 6.1 0.00 0.00 0.00 66 1017.3
20260902225752 77 283 2.6 5.2 0.00 0.00 0.00 65 1017.3
20260902225248 76 291 3.5 7.0 0.00 0.00 0.00 66 1017.3
20260902224746 76 250 4.3 6.1 0.00 0.00 0.00 67 1017.3
20260902224242 77 215 3.5 7.0 0.00 0.00 0.00 65 1017.6
20260902223738 77 281 3.5 7.0 0.00 0.00 0.00 67 1017.6
20260902223237 77 321 2.6 7.0 0.00 0.00 0.00 66 1017.6
20260902222731 78 334 0.9 1.7 0.00 0.00 0.00 63 1017.6
20260902222230 79 319 1.7 3.5 0.00 0.00 0.00 63 1017.6
20260902221720 79 287 1.7 3.5 0.00 0.00 0.00 63 1017.6
20260902221219 78 290 1.7 3.5 0.00 0.00 0.00 61 1018.0
20260902220714 78 227 2.6 5.2 0.00 0.00 0.00 61 1017.6
20260902220209 77 296 1.7 6.1 0.00 0.00 0.00 63 1017.6
20260902215704 78 193 1.7 5.2 0.00 0.00 0.00 62 1018.0
20260902215200 78 264 4.3 6.1 0.00 0.00 0.00 60 1017.6
20260902214655 78 264 2.6 5.2 0.00 0.00 0.00 62 1018.3
20260902214154 78 256 1.7 6.1 0.00 0.00 0.00 61 1017.6
20260902213649 78 181 1.7 3.5 0.00 0.00 0.00 60 1018.0
20260902213149 79 304 0.9 5.2 0.00 0.00 0.00 59 1018.0
20260902212644 79 236 0.9 5.2 0.00 0.00 0.00 59 1018.0
20260902212140 79 313 2.6 6.1 0.00 0.00 0.00 60 1018.0
20260902211637 78 170 1.7 5.2 0.00 0.00 0.00 61 1018.0
20260902211137 78 240 3.5 6.1 0.00 0.00 0.00 60 1018.0
20260902210636 78 332 0.9 7.0 0.00 0.00 0.00 61 1018.0
20260902210131 78 224 2.6 5.2 0.00 0.00 0.00 60 1018.3
20260902205630 78 274 0.9 5.2 0.00 0.00 0.00 61 1018.3
20260902205125 78 209 3.5 5.2 0.00 0.00 0.00 60 1018.3
20260902204620 78 276 2.6 5.2 0.00 0.00 0.00 60 1018.3
20260902204115 78 248 3.5 6.1 0.00 0.00 0.00 60 1018.7
20260902203611 78 241 1.7 5.2 0.00 0.00 0.00 60 1018.7
20260902203110 78 238 0.9 3.5 0.00 0.00 0.00 60 1018.7
20260902202606 78 237 0.9 3.5 0.00 0.00 0.00 61 1018.7
20260902202102 78 248 4.3 5.2 0.00 0.00 0.00 60 1018.7
20260902201558 79 340 0.9 5.2 0.00 0.00 0.00 61 1018.7
20260902201056 78 220 1.7 3.5 0.00 0.00 0.00 63 1018.7
20260902200552 78 213 2.6 7.0 0.00 0.00 0.00 60 1018.7
20260902200048 77 271 3.5 5.2 0.00 0.00 0.00 63 1018.7
20260902195543 78 235 3.5 7.0 0.00 0.00 0.00 63 1019.0
20260902195042 78 280 0.9 3.5 0.00 0.00 0.00 62 1018.7
20260902194536 77 171 3.5 5.2 0.00 0.00 0.00 62 1018.7
20260902194032 77 266 1.7 2.6 0.00 0.00 0.00 63 1019.0
20260902193528 76 246 3.5 6.1 0.00 0.00 0.00 64 1018.7
20260902193027 77 180 1.7 5.2 0.00 0.00 0.00 64 1019.0
20260902192526 76 249 2.6 5.2 0.00 0.00 0.00 65 1018.7
20260902192025 78 211 1.7 3.5 0.00 0.00 0.00 62 1019.0
20260902191520 76 282 5.2 6.1 0.00 0.00 0.00 65 1019.0
20260902191015 77 193 1.7 5.2 0.00 0.00 0.00 65 1019.0
20260902190510 77 254 1.7 3.5 0.00 0.00 0.00 65 1019.0
20260902190006 77 120 2.6 7.0 0.00 0.00 0.00 65 1019.0
20260902185502 78 236 1.7 3.5 0.00 0.00 0.00 64 1019.3
20260902184956 78 339 0.9 3.5 0.00 0.00 0.00 65 1019.3
20260902184452 77 298 1.7 3.5 0.00 0.00 0.00 66 1019.3
20260902183947 77 265 1.7 6.1 0.00 0.00 0.00 66 1019.3
20260902183443 78 210 1.7 2.6 0.00 0.00 0.00 64 1019.3
20260902182939 78 316 1.7 3.5 0.00 0.00 0.00 64 1019.3
20260902182435 76 228 1.7 2.6 0.00 0.00 0.00 67 1019.3
20260902181931 77 279 4.3 5.2 0.00 0.00 0.00 65 1019.3
20260902181426 77 280 4.3 5.2 0.00 0.00 0.00 65 1019.3
20260902180921 77 240 0.9 3.5 0.00 0.00 0.00 64 1019.3
20260902180416 77 239 0.9 1.7 0.00 0.00 0.00 65 1019.3
20260902175912 76 311 1.7 2.6 0.00 0.00 0.00 66 1019.3
20260902175407 76 92 1.7 3.5 0.00 0.00 0.00 66 1019.3
20260902174902 76 226 1.7 2.6 0.00 0.00 0.00 66 1019.3
20260902174400 76 218 1.7 3.5 0.00 0.00 0.00 66 1019.3
20260902173855 77 198 1.7 3.5 0.00 0.00 0.00 66 1019.0
20260902173354 76 328 0.0 0.9 0.00 0.00 0.00 66 1019.3
20260902172849 75 264 1.7 2.6 0.00 0.00 0.00 67 1019.3
20260902172348 75 201 2.6 5.2 0.00 0.00 0.00 68 1019.3
20260902171844 75 132 1.7 2.6 0.00 0.00 0.00 66 1019.3
20260902171339 75 161 0.9 2.6 0.00 0.00 0.00 68 1019.3
20260902170835 75 145 1.7 2.6 0.00 0.00 0.00 68 1019.3
20260902170330 74 299 0.9 1.7 0.00 0.00 0.00 70 1019.3
20260902165826 75 289 1.7 2.6 0.00 0.00 0.00 68 1019.0
20260902165325 77 199 1.7 1.7 0.00 0.00 0.00 65 1019.0
20260902164819 75 352 0.0 0.9 0.00 0.00 0.00 66 1019.0
20260902164314 75 61 0.9 2.6 0.00 0.00 0.00 67 1019.0
20260902163808 75 39 0.9 2.6 0.00 0.00 0.00 66 1019.0
20260902163303 75 317 0.9 3.5 0.00 0.00 0.00 66 1019.0
20260902162802 75 101 1.7 1.7 0.00 0.00 0.00 66 1019.0
20260902162256 75 354 0.9 3.5 0.00 0.00 0.00 67 1019.0
20260902161756 74 350 0.0 1.7 0.00 0.00 0.00 68 1019.0
20260902161252 73 32 0.9 1.7 0.00 0.00 0.00 71 1019.0
20260902160748 74 353 1.7 2.6 0.00 0.00 0.00 68 1019.3
20260902160243 74 335 0.0 0.9 0.00 0.00 0.00 68 1019.0
20260902155741 73 10 0.0 0.9 0.00 0.00 0.00 70 1019.0
20260902155240 73 339 0.9 0.9 0.00 0.00 0.00 70 1019.0
20260902154735 73 347 0.0 0.9 0.00 0.00 0.00 69 1019.0
20260902154231 74 273 0.9 0.9 0.00 0.00 0.00 70 1019.0
20260902153730 73 330 0.9 0.9 0.00 0.00 0.00 71 1019.0
20260902153230 73 49 0.9 1.7 0.00 0.00 0.00 71 1019.0
20260902152726 72 51 0.0 0.9 0.00 0.00 0.00 72 1019.0
20260902152221 73 314 0.0 0.0 0.00 0.00 0.00 71 1018.7
20260902151717 73 351 0.0 0.9 0.00 0.00 0.00 71 1018.7
20260902151212 72 8 0.0 0.9 0.00 0.00 0.00 72 1018.7
20260902150707 73 36 0.9 0.9 0.00 0.00 0.00 71 1019.0
20260902150203 72 358 0.9 0.9 0.00 0.00 0.00 74 1019.0
20260902145702 71 27 0.0 0.9 0.00 0.00 0.00 75 1018.7
20260902145201 71 0 0.9 0.9 0.00 0.00 0.00 75 1018.7
20260902144658 72 346 0.0 0.9 0.00 0.00 0.00 74 1018.7
20260902144153 71 350 0.0 0.9 0.00 0.00 0.00 78 1018.7
20260902143648 69 347 0.0 0.0 0.00 0.00 0.00 85 1019.0
20260902143143 68 347 0.0 0.0 0.00 0.00 0.00 87 1019.0
20260902142639 68 346 0.0 0.0 0.00 0.00 0.00 89 1018.7
20260902142135 67 345 0.0 0.0 0.00 0.00 0.00 90 1018.7
20260902141634 66 345 0.0 0.0 0.00 0.00 0.00 91 1019.0
20260902141130 65 344 0.0 0.0 0.00 0.00 0.00 91 1018.7
20260902140625 63 341 0.0 0.0 0.00 0.00 0.00 91 1018.7
20260902140120 64 341 0.0 0.0 0.00 0.00 0.00 92 1018.3
20260902135619 63 344 0.0 0.0 0.00 0.00 0.00 92 1018.3
20260902135114 62 345 0.0 0.0 0.00 0.00 0.00 92 1018.3
20260902134610 62 339 0.0 0.0 0.00 0.00 0.00 92 1018.3
20260902134110 61 336 0.0 0.0 0.00 0.00 0.00 92 1018.3
20260902133605 61 343 0.0 0.0 0.00 0.00 0.00 92 1018.3
20260902133105 61 343 0.0 0.0 0.00 0.00 0.00 92 1018.0
20260902132600 61 339 0.0 0.0 0.00 0.00 0.00 91 1018.0
20260902132055 61 340 0.0 0.0 0.00 0.00 0.00 91 1018.3
20260902131552 61 343 0.0 0.0 0.00 0.00 0.00 91 1018.0
20260902131052 61 330 0.0 0.0 0.00 0.00 0.00 91 1018.0
20260902130547 61 341 0.0 0.0 0.00 0.00 0.00 91 1018.0
20260902130042 61 329 0.0 0.9 0.00 0.00 0.00 91 1018.0
20260902125539 61 334 0.0 0.0 0.00 0.00 0.00 91 1018.3
20260902125034 61 341 0.0 0.0 0.00 0.00 0.00 91 1018.3
20260902124531 61 341 0.0 0.0 0.00 0.00 0.00 91 1018.3
20260902124031 61 340 0.0 0.0 0.00 0.00 0.00 91 1018.3
20260902123527 62 345 0.0 0.0 0.00 0.00 0.00 90 1018.0
20260902123026 62 335 0.0 0.0 0.00 0.00 0.00 90 1018.0
20260902122526 62 337 0.0 0.0 0.00 0.00 0.00 90 1018.0
20260902122021 62 348 0.0 0.0 0.00 0.00 0.00 90 1018.3
20260902121516 62 336 0.0 0.0 0.00 0.00 0.00 90 1018.3
20260902121011 62 340 0.0 0.0 0.00 0.00 0.00 90 1018.0
20260902120507 62 344 0.0 0.0 0.00 0.00 0.00 90 1018.0
20260902120003 62 334 0.0 0.0 0.00 0.00 0.00 90 1018.3
20260902115458 62 341 0.0 0.0 0.00 0.00 0.00 90 1018.3
20260902114954 62 339 0.0 0.0 0.00 0.00 0.00 90 1018.3
20260902114449 62 343 0.0 0.0 0.00 0.00 0.00 90 1018.3
20260902113944 62 340 0.0 0.0 0.00 0.00 0.00 90 1018.3
20260902113440 62 341 0.0 0.0 0.00 0.00 0.00 91 1018.3
20260902112939 62 339 0.0 0.0 0.00 0.00 0.00 91 1018.3
20260902112436 62 337 0.0 0.9 0.00 0.00 0.00 91 1018.3
20260902111932 62 339 0.0 0.0 0.00 0.00 0.00 91 1018.3
20260902111428 62 343 0.0 0.0 0.00 0.00 0.00 90 1018.3
20260902110924 62 336 0.0 0.0 0.00 0.00 0.00 90 1018.3
20260902110420 62 341 0.0 0.0 0.00 0.00 0.00 90 1018.3
20260902105914 62 341 0.0 0.0 0.00 0.00 0.00 90 1018.7
20260902105409 62 334 0.0 0.0 0.00 0.00 0.00 90 1018.3
20260902104904 62 343 0.0 0.0 0.00 0.00 0.00 90 1018.7
20260902104400 62 349 0.0 0.0 0.00 0.00 0.00 90 1018.3
20260902103859 62 345 0.0 0.0 0.00 0.00 0.00 90 1018.7
20260902103354 62 339 0.0 0.0 0.00 0.00 0.00 90 1018.3
20260902102849 63 343 0.0 0.0 0.00 0.00 0.00 90 1018.3
20260902102348 63 338 0.0 0.0 0.00 0.00 0.00 90 1018.3
20260902101843 63 337 0.0 0.0 0.00 0.00 0.00 90 1018.3
20260902101337 64 336 0.0 0.0 0.00 0.00 0.00 90 1018.0
20260902100837 63 337 0.0 0.0 0.00 0.00 0.00 90 1018.3
20260902100336 63 339 0.0 0.0 0.00 0.00 0.00 89 1018.7
20260902095831 63 346 0.0 0.0 0.00 0.00 0.00 89 1018.7
20260902095326 63 345 0.0 0.0 0.00 0.00 0.00 89 1018.3
20260902094825 63 344 0.0 0.0 0.00 0.00 0.00 89 1018.3
20260902094322 64 347 0.0 0.0 0.00 0.00 0.00 89 1018.3
20260902093821 64 347 0.0 0.0 0.00 0.00 0.00 89 1018.3
20260902093316 64 347 0.0 0.0 0.00 0.00 0.00 89 1018.3
20260902092815 64 341 0.0 0.0 0.00 0.00 0.00 88 1018.3
20260902092311 64 338 0.0 0.0 0.00 0.00 0.00 88 1018.3
20260902091811 64 343 0.0 0.0 0.00 0.00 0.00 88 1018.7
20260902091307 64 0 0.0 0.0 0.00 0.00 0.00 88 1018.3
20260902090803 64 358 0.0 0.0 0.00 0.00 0.00 88 1018.3
20260902090302 64 354 0.0 0.0 0.00 0.00 0.00 88 1018.3
20260902085801 65 352 0.0 0.0 0.00 0.00 0.00 88 1018.3
20260902085257 65 328 0.0 0.0 0.00 0.00 0.00 88 1018.0
20260902084753 65 355 0.0 0.0 0.00 0.00 0.00 88 1018.3
20260902084248 65 330 0.0 0.0 0.00 0.00 0.00 87 1018.3
20260902083744 65 357 0.0 0.9 0.00 0.00 0.00 87 1018.3
20260902083238 65 350 0.0 0.0 0.00 0.00 0.00 87 1018.3
20260902082733 65 36 0.9 0.9 0.00 0.00 0.00 87 1018.3
20260902082230 65 1 0.0 0.9 0.00 0.00 0.00 86 1018.7
20260902081726 65 27 0.9 1.7 0.00 0.00 0.00 86 1018.3
20260902081221 65 6 0.9 1.7 0.00 0.00 0.00 87 1018.7
20260902080716 65 358 0.9 1.7 0.00 0.00 0.00 87 1018.3
20260902080213 65 28 1.7 1.7 0.00 0.00 0.00 87 1018.3
20260902075712 65 24 0.0 1.7 0.00 0.00 0.00 87 1018.3
20260902075209 65 24 0.9 0.9 0.00 0.00 0.00 87 1018.3
20260902074708 65 3 0.0 0.0 0.00 0.00 0.00 86 1018.3
20260902074203 65 351 0.0 0.0 0.00 0.00 0.00 86 1018.3
20260902073659 65 1 0.0 0.0 0.00 0.00 0.00 86 1018.3
20260902073155 65 2 0.0 0.0 0.00 0.00 0.00 86 1018.3
20260902072651 65 3 0.0 0.0 0.00 0.00 0.00 86 1018.0
20260902072147 65 358 0.0 0.0 0.00 0.00 0.00 86 1018.0
20260902071642 65 358 0.0 0.0 0.00 0.00 0.00 86 1018.0
20260902071138 65 356 0.0 0.0 0.00 0.00 0.00 86 1018.0
20260902070634 65 352 0.0 0.0 0.00 0.00 0.00 86 1018.0
20260902070133 65 358 0.0 0.0 0.00 0.00 0.00 86 1018.0
20260902065632 65 340 0.0 0.0 0.00 0.00 0.00 86 1018.0
20260902065128 65 354 0.0 0.0 0.00 0.00 0.00 85 1018.0
20260902064623 65 354 0.0 0.0 0.00 0.00 0.00 85 1018.0
20260902064119 65 357 0.0 0.0 0.00 0.00 0.00 85 1018.0
20260902063614 65 353 0.0 0.0 0.00 0.00 0.00 85 1018.0
20260902063109 65 349 0.0 0.0 0.00 0.00 0.00 85 1018.0
20260902062607 66 351 0.0 0.0 0.00 0.00 0.00 84 1018.0
20260902062103 65 354 0.0 0.0 0.00 0.00 0.00 84 1018.0
20260902061603 66 341 0.0 0.0 0.00 0.00 0.00 83 1018.0
20260902061059 66 344 0.0 0.0 0.00 0.00 0.00 82 1017.6
20260902060555 66 343 0.0 0.0 0.00 0.00 0.00 82 1017.6
20260902060051 67 339 0.0 0.0 0.00 0.00 0.00 82 1018.0
20260902055546 67 336 0.0 0.0 0.00 0.00 0.00 82 1017.6
20260902055042 67 339 0.0 0.0 0.00 0.00 0.00 82 1017.6
20260902054537 66 333 0.0 0.0 0.00 0.00 0.00 82 1017.6
20260902054032 67 345 0.0 0.0 0.00 0.00 0.00 81 1017.6
20260902053527 67 341 0.0 0.0 0.00 0.00 0.00 82 1018.0
20260902053027 67 329 0.0 0.9 0.00 0.00 0.00 82 1017.6
20260902052521 66 337 0.0 0.9 0.00 0.00 0.00 83 1017.6
20260902052017 66 340 0.0 0.0 0.00 0.00 0.00 82 1017.6
20260902051517 66 347 0.0 0.0 0.00 0.00 0.00 82 1017.6
20260902051016 66 350 0.0 0.0 0.00 0.00 0.00 82 1017.6
20260902050510 66 354 0.0 0.0 0.00 0.00 0.00 82 1018.0
20260902050008 66 351 0.0 0.0 0.00 0.00 0.00 82 1017.6
20260902045501 66 324 0.0 0.0 0.00 0.00 0.00 81 1017.6
20260902044958 66 341 0.0 0.0 0.00 0.00 0.00 81 1017.6
20260902044452 66 350 0.0 0.0 0.00 0.00 0.00 81 1017.6
20260902043948 66 349 0.0 0.0 0.00 0.00 0.00 81 1017.6
20260902043443 66 353 0.0 0.0 0.00 0.00 0.00 81 1017.3
20260902042938 66 344 0.0 0.0 0.00 0.00 0.00 80 1017.3
20260902042437 66 343 0.0 0.0 0.00 0.00 0.00 80 1017.3
20260902041933 66 342 0.0 0.0 0.00 0.00 0.00 80 1017.3
20260902041427 67 338 0.0 0.0 0.00 0.00 0.00 80 1017.0
20260902040926 67 340 0.0 0.0 0.00 0.00 0.00 79 1017.3
20260902040421 67 343 0.0 0.0 0.00 0.00 0.00 79 1017.3